Weather History for KCVG - September, 2013

Change the Weather History Date:

Wednesday, September 25, 2013

  Actual Average Record
Temperature  
Mean Temperature 66 °F 64 °F  
Max Temperature 76 °F 74 °F 93 °F (2007)
Min Temperature 56 °F 53 °F 35 °F (1950)
Degree Days  
Heating Degree Days 0 4  
Month to date heating degree days 23 35  
Since 1 July heating degree days 27 35  
Cooling Degree Days 1 2  
Month to date cooling degree days 137 127  
Year to date cooling degree days 1113 1095  
Growing Degree Days 16 (Base 50)    
Moisture  
Dew Point 54 °F    
Average Humidity 65    
Maximum Humidity 87    
Minimum Humidity 43    
Precipitation  
Precipitation 0.00 in 0.09 in 2.02 in (2000)
Month to date precipitation 3.56 2.17  
Year to date precipitation 36.61 31.96  
Snow  
Snow 0.00 in 0.00 in - ()
Month to date snowfall 0.0 0.0  
Since 1 July snowfall 0.0 0.0  
Since 1 September snowfall 0.0 0.0  
Snow Depth 0.00 in    
Sea Level Pressure  
Sea Level Pressure 29.90 in    
Wind  
Wind Speed 5 mph (ENE)    
Max Wind Speed 12 mph    
Max Gust Speed 15 mph    
Visibility 10 miles    
Events      
T = Trace of Precipitation, MM = Missing Value Source: NWS Daily Summary

Daily Weather History Graph

Daily Weather History Graph

Search for Another Location

Airport or City:

Trip Planner

Search our weather history database for the weather conditions in past years. The results will help you decide how hot, cold, wet, or windy it might be!

Date:

Astronomy

Sep. 25, 2013 Rise Set
Actual Time 7:29 AM EDT 7:30 PM EDT
Civil Twilight 7:02 AM EDT 7:57 PM EDT
Nautical Twilight 6:31 AM EDT 8:28 PM EDT
Astronomical Twilight 6:00 AM EDT 8:59 PM EDT
Moon 11:38 PM EDT (9/25) 1:31 PM EDT (9/25)
Length of Visible Light 12h 54m
Length of Day
12h 01m
Waning Gibbous, 64% of the Moon is Illuminated
Sep 25
Waning Gibbous
Sep 26
Last Quarter
Oct 4
New
Oct 11
First Quarter
Oct 18
Full

Hourly Weather History & Observations

Time (EDT) Temp. Dew Point Humidity Pressure Visibility Wind Dir Wind Speed Gust Speed Precip Events Conditions
12:52 AM 61.0 °F 55.9 °F 83% 29.91 in 10.0 mi East 4.6 mph - N/A   Mostly Cloudy
1:52 AM 61.0 °F 55.9 °F 83% 29.90 in 10.0 mi East 5.8 mph - N/A   Overcast
2:52 AM 61.0 °F 55.9 °F 83% 29.89 in 10.0 mi East 4.6 mph - N/A   Overcast
3:52 AM 61.0 °F 55.9 °F 83% 29.87 in 10.0 mi East 4.6 mph - N/A   Overcast
4:52 AM 59.0 °F 55.0 °F 87% 29.87 in 10.0 mi ESE 4.6 mph - N/A   Overcast
5:52 AM 61.0 °F 55.0 °F 81% 29.88 in 10.0 mi East 4.6 mph - N/A   Mostly Cloudy
6:52 AM 60.1 °F 55.9 °F 86% 29.89 in 10.0 mi ENE 6.9 mph - N/A   Scattered Clouds
7:52 AM 57.9 °F 54.0 °F 87% 29.90 in 10.0 mi NE 5.8 mph - N/A   Mostly Cloudy
8:52 AM 59.0 °F 53.1 °F 81% 29.90 in 10.0 mi NE 6.9 mph - N/A   Mostly Cloudy
9:52 AM 61.0 °F 53.1 °F 75% 29.92 in 10.0 mi East 3.5 mph - N/A   Mostly Cloudy
10:52 AM 66.0 °F 55.0 °F 68% 29.92 in 10.0 mi ENE 8.1 mph - N/A   Mostly Cloudy
11:52 AM 66.9 °F 55.9 °F 68% 29.92 in 10.0 mi NE 6.9 mph - N/A   Mostly Cloudy
12:52 PM 70.0 °F 57.0 °F 63% 29.92 in 10.0 mi NE 6.9 mph - N/A   Mostly Cloudy
1:52 PM 73.0 °F 57.0 °F 57% 29.90 in 10.0 mi NE 8.1 mph - N/A   Mostly Cloudy
2:52 PM 73.0 °F 55.0 °F 53% 29.88 in 10.0 mi NNE 9.2 mph - N/A   Scattered Clouds
3:52 PM 75.0 °F 52.0 °F 44% 29.87 in 10.0 mi NNE 6.9 mph - N/A   Scattered Clouds
4:52 PM 75.0 °F 52.0 °F 44% 29.88 in 10.0 mi NNE 5.8 mph - N/A   Scattered Clouds
5:52 PM 73.9 °F 52.0 °F 46% 29.87 in 10.0 mi North 4.6 mph - N/A   Scattered Clouds
6:52 PM 72.0 °F 52.0 °F 49% 29.87 in 10.0 mi NE 6.9 mph - N/A   Scattered Clouds
7:52 PM 68.0 °F 52.0 °F 56% 29.89 in 10.0 mi NE 5.8 mph - N/A   Clear
8:52 PM 64.9 °F 52.0 °F 63% 29.90 in 10.0 mi East 3.5 mph - N/A   Clear
9:52 PM 62.1 °F 51.1 °F 67% 29.91 in 10.0 mi Calm Calm - N/A   Clear
10:52 PM 60.1 °F 51.1 °F 72% 29.92 in 10.0 mi Calm Calm - N/A   Clear
11:52 PM 59.0 °F 52.0 °F 78% 29.92 in 10.0 mi Calm Calm - N/A   Clear